Хат-Крик

США     40°50′31″N   121°25′37″W
темп.,
°C
ветер,
м/с
пор.,
м/с
влажн.,
%
обл.,
%
осадки,
мм/ч
давл.,
гПа
погр.,
м
16 октября, сб
сб1623:00+8ю32349 0.0 102325
02:00+8ю223742 0.0 102219
05:00+8ююв223627 0.0 102119
08:00+9ююв22355 0.0 102025
11:00+21с22175 0.0 1016918
14:00+23сз34155 0.0 10121899
17:00+19зюз33205 0.0 1012822
20:00+10ююз34365 0.0 101549
17 октября, вс
вс1723:00+8ююз333567 0.0 101545
02:00+7ю3432100 0.0 101459
05:00+6ю352749 0.0 101278
08:00+7ю392837 0.0 1010315
11:00+14ююз717184 0.0 10062061
14:00+14ююз818193 0.0 10032373
17:00+11ююз7184017 0.0 10022444
20:00+2ююз5188596 1.8 10061449
18 октября, пн
пн1823:00+2юз3897100 8.3 1007747
02:000зюз31098100 6.4 1011714
05:000юз2698100 7.6 1014401
08:000зюз2596100 0.3 1017349
11:00+3з228254 0.3 1017755
14:00+3з117995 0.1 1017825
17:00+3з0184100 0.1 1017273
20:00−2ююв2296100 0.0 102119
19 октября, вт
вт1923:00−3ююв2295100 0.0 102135
02:00−2ю2292100 0.0 101927
05:00−2ю2290100 0.0 101930
08:00−1ю2288100 0.0 101935
11:00+7юз1268100 0.0 1014448
14:00+9юз2466100 0.0 1013908
17:00+8юз247699 0.0 1012596
20:00+2ююз3389100 0.0 101647
20 октября, ср
ср2023:000ююз34883 0.0 101756
02:00+2ююз358386 0.0 1016127
05:00+3ююз2693100 2.1 1017352
08:00+3юз2496100 1.0 1017208
11:00+4з1397100 1.1 1019294
14:00+5зюз1298100 0.0 1019227
17:00+5юв0298100 0.4 1020114
20:00+5ююв1296100 0.6 102165